Weather History for Corpus Christi, TX

Change the Weather History Date:

Sunday, June 24, 2012

  Actual Average Record
Temperature  
Mean Temperature 87 °F 83 °F  
Max Temperature 98 °F 92 °F 98 °F (1990)
Min Temperature 75 °F 75 °F 68 °F (2005)
Degree Days  
Heating Degree Days 0 0  
Month to date heating degree days 0 0  
Since 1 June heating degree days 0 0  
Since 1 July heating degree days 611 898  
Cooling Degree Days 22 18  
Month to date cooling degree days 473 412  
Year to date cooling degree days 1706 1253  
Since 1 June cooling degree days 473 412  
Growing Degree Days 36 (Base 50)    
Moisture  
Dew Point 72 °F    
Average Humidity 68    
Maximum Humidity 94    
Minimum Humidity 42    
Precipitation  
Precipitation 0.00 in 0.13 in 4.72 in (1970)
Month to date precipitation 0.55 2.65  
Year to date precipitation 11.97 12.92  
Snow  
Snow 0.00 in - - ()
Month to date snowfall 0.0  
Since 1 June snowfall 0.0  
Since 1 July snowfall 0.0  
Snow Depth 0.00 in    
Sea Level Pressure  
Sea Level Pressure 29.89 in    
Wind  
Wind Speed 7 mph (East)    
Max Wind Speed 15 mph    
Max Gust Speed 21 mph    
Visibility 10 miles    
Events      
T = Trace of Precipitation, MM = Missing Value Source: NWS Daily Summary

Daily Weather History Graph

Daily Weather History Graph

Search for Another Location

Airport:

Trip Planner

Search our weather history database for the weather conditions in past years. The results will help you decide how hot, cold, wet, or windy it might be!

Date:

Astronomy

Jun. 24, 2012 Rise Set
Actual Time 6:35 AM CDT 8:29 PM CDT
Civil Twilight 6:09 AM CDT 8:56 PM CDT
Nautical Twilight 5:36 AM CDT 9:28 PM CDT
Astronomical Twilight 5:02 AM CDT 10:02 PM CDT
Moon 11:16 AM CDT (6/24) 11:58 PM CDT (6/24)
Length of Visible Light 14h 47m
Length of Day
13h 53m
Waxing Crescent, 25% of the Moon is Illuminated
Jun 24
Waxing Crescent
Jun 26
First Quarter
Jul 3
Full
Jul 10
Last Quarter
Jul 18
New

Hourly Weather History & Observations

Time (CDT) Temp. Heat Index Dew Point Humidity Pressure Visibility Wind Dir Wind Speed Gust Speed Precip Events Conditions
12:51 AM 81.0 °F 86.7 °F 75.0 °F 82% 29.89 in 10.0 mi ESE 5.8 mph - N/A   Scattered Clouds
1:51 AM 81.0 °F 86.7 °F 75.0 °F 82% 29.89 in 10.0 mi ESE 6.9 mph - N/A   Partly Cloudy
2:51 AM 79.0 °F - 75.0 °F 88% 29.87 in 10.0 mi South 3.5 mph - N/A   Partly Cloudy
3:51 AM 77.0 °F - 73.0 °F 88% 29.87 in 10.0 mi West 3.5 mph - N/A   Partly Cloudy
4:51 AM 75.9 °F - 73.0 °F 91% 29.88 in 10.0 mi NW 5.8 mph - N/A   Partly Cloudy
5:51 AM 75.9 °F - 73.0 °F 91% 29.88 in 10.0 mi North 4.6 mph - N/A   Partly Cloudy
6:51 AM 75.9 °F - 73.0 °F 91% 29.89 in 10.0 mi North 4.6 mph - N/A   Partly Cloudy
7:51 AM 81.0 °F 87.3 °F 75.9 °F 85% 29.91 in 10.0 mi NNE 5.8 mph - N/A   Partly Cloudy
8:51 AM 86.0 °F 96.9 °F 77.0 °F 74% 29.93 in 10.0 mi ENE 5.8 mph - N/A   Scattered Clouds
9:28 AM 87.8 °F 97.6 °F 75.2 °F 66% 29.94 in 10.0 mi NE 5.8 mph - N/A   Mostly Cloudy
9:49 AM 87.8 °F 95.6 °F 73.4 °F 62% 29.94 in 10.0 mi NE 4.6 mph - N/A   Mostly Cloudy
9:51 AM 87.1 °F 95.4 °F 73.9 °F 65% 29.94 in 10.0 mi NNE 5.8 mph - N/A   Mostly Cloudy
10:51 AM 91.0 °F 100.4 °F 73.9 °F 57% 29.94 in 10.0 mi Variable 5.8 mph - N/A   Partly Cloudy
11:51 AM 93.0 °F 99.0 °F 70.0 °F 47% 29.93 in 10.0 mi East 9.2 mph - N/A   Partly Cloudy
12:51 PM 95.0 °F 101.3 °F 70.0 °F 44% 29.92 in 10.0 mi ESE 10.4 mph - N/A   Partly Cloudy
1:51 PM 96.1 °F 101.6 °F 69.1 °F 41% 29.92 in 10.0 mi East 11.5 mph 20.7 mph N/A   Partly Cloudy
2:51 PM 96.1 °F 102.9 °F 70.0 °F 43% 29.90 in 10.0 mi East 11.5 mph 18.4 mph N/A   Partly Cloudy
3:51 PM 96.1 °F 102.9 °F 70.0 °F 43% 29.88 in 10.0 mi ESE 11.5 mph 18.4 mph N/A   Partly Cloudy
4:51 PM 96.1 °F 101.6 °F 69.1 °F 41% 29.86 in 10.0 mi East 12.7 mph - N/A   Partly Cloudy
5:51 PM 95.0 °F 100.7 °F 69.1 °F 43% 29.85 in 10.0 mi ESE 11.5 mph - N/A   Partly Cloudy
6:51 PM 93.0 °F 97.9 °F 69.1 °F 45% 29.86 in 10.0 mi SE 9.2 mph - N/A   Clear
7:51 PM 91.0 °F 96.6 °F 70.0 °F 50% 29.86 in 10.0 mi SE 8.1 mph - N/A   Clear
8:51 PM 86.0 °F 91.5 °F 71.1 °F 61% 29.86 in 10.0 mi SSE 6.9 mph - N/A   Clear
9:51 PM 82.0 °F 87.4 °F 73.0 °F 74% 29.88 in 10.0 mi South 4.6 mph - N/A   Clear
10:51 PM 80.1 °F 84.2 °F 73.0 °F 79% 29.89 in 10.0 mi South 5.8 mph - N/A   Clear
11:51 PM 79.0 °F - 73.0 °F 82% 29.89 in 10.0 mi SW 4.6 mph - N/A   Clear